This demonstration page uses our WeatherBlox Daily Observations layout. Learn more.

Left ArrowRight Arrow

41.55636, -103.73856

Hourly Observations for October 4, 2018

Temp ( °F °C ) Dew Point ( °F °C ) Humidity (%) Winds ( mph kmh ) Pressure ( in mb ) Visibility ( mi km ) Precip ( " mm )
1:58 am 01:58 Mostly Cloudy 36 2.4 28 -2.2 72 72 S 5 7 30.14 1021 10 16 N/A
2:58 am 02:58 Mostly Cloudy 36 2 28 -2 75 75 ESE 10 17 30.13 1020 10 16 N/A
3:58 am 03:58 Cloudy 36 2 30 -1.3 79 79 SE 13 20 30.14 1021 10 16 N/A
4:58 am 04:58 Mostly Cloudy 35 1.7 31 -0.7 84 84 SSE 13 20 30.14 1021 10 16 N/A
5:58 am 05:58 Cloudy 36 2.3 32 0.1 86 86 SSE 15 24 30.14 1021 10 16 N/A
6:58 am 06:58 Cloudy 37 2.9 32 0.1 82 82 S 15 24 30.14 1021 10 16 N/A
7:58 am 07:58 Cloudy 39 3.9 32 -0.2 75 75 SSE 23 37 30.14 1021 10 16 N/A
8:58 am 08:58 Mostly Cloudy 39 3.7 32 -0.2 76 76 S 17 28 30.15 1021 10 16 N/A
9:58 am 09:58 Cloudy 40 4.2 33 0.7 78 78 S 16 26 30.15 1021 10 16 N/A
10:58 am 10:58 Cloudy 44 6.7 33 0.7 66 66 S 15 24 30.06 1018 10 16 N/A
11:58 am 11:58 Mostly Sunny 47 8.4 32 undefined 56 56 SSE 18 30 30.00 1016 10 16 N/A
12:58 pm 12:58 Mostly Sunny 48 9.1 32 undefined 53 53 SSW 17 28 30.00 1016 10 16 N/A
1:58 pm 13:58 Sunny 52 11.1 34 0.9 50 50 SSE 14 22 29.96 1015 10 16 N/A
2:58 pm 14:58 Sunny 54 12.4 35 1.8 49 49 SSW 16 26 29.92 1013 10 16 N/A
3:58 pm 15:58 Cloudy with Rain 49 9.5 44 6.5 82 82 SSW 17 28 29.94 1014 7 11 0.03 0.76
4:58 pm 16:58 Mostly Cloudy 47 8.6 44 6.7 88 88 SE 8 13 29.87 1012 10 16 0.02 0.51
5:57 pm 17:57 Mostly Sunny 48 9.1 44 6.5 84 84 SSW 10 17 29.92 1013 10 16 N/A
6:56 pm 18:56 Partly Cloudy 45 7.2 40 4.2 81 81 S 7 11 29.93 1014 10 16 N/A
7:56 pm 19:56 Cloudy 45 7.3 40 4.5 83 83 SW 12 19 29.95 1014 10 16 N/A
8:56 pm 20:56 Mostly Clear 42 5.8 38 3.6 86 86 SW 7 11 29.96 1015 10 16 N/A
9:56 pm 21:56 Clear 41 5.2 38 3.1 86 86 SSW 6 9 29.95 1014 10 16 N/A
10:56 pm 22:56 Clear 40 4.6 37 2.6 87 87 SSW 8 13 29.93 1013 10 16 N/A
11:56 pm 23:56 Clear 40 4.3 36 2.2 86 86 SW 6 9 29.92 1013 10 16 N/A

Powered by AerisWeather